Location: Winnipeg
(49.8830°N, 97.1670°W)
Time: 06:57:06
(UTC-06:00)

BlueWalker 3 - Visible Passes

Search period start: 01 December 2022 00:00
Search period end: 11 December 2022 00:00
Orbit: 500 x 519 km, 53.2° (Epoch: 01 December)

Date Brightness Start Highest point End Pass type
(mag) Time Alt. Az. Time Alt. Az. Time Alt. Az.
01 Dec 2.3 18:13:46 10° W 18:17:37 51° N 18:18:55 34° NE visible
01 Dec 4.7 19:52:43 10° WNW 19:53:45 17° WNW 19:53:45 17° WNW visible
02 Dec 2.3 17:55:25 10° W 17:59:15 51° N 18:01:16 25° ENE visible
02 Dec 4.1 19:34:21 10° WNW 19:36:06 25° WNW 19:36:06 25° WNW visible
03 Dec 2.3 17:37:02 10° W 17:40:53 51° N 17:43:38 17° ENE visible
03 Dec 3.3 19:15:58 10° WNW 19:18:28 37° WNW 19:18:28 37° WNW visible
04 Dec 2.3 17:18:40 10° W 17:22:30 51° N 17:26:02 12° ENE visible
04 Dec 2.3 18:57:34 10° WNW 19:00:52 58° NW 19:00:52 58° NW visible
05 Dec 2.3 17:00:17 10° W 17:04:07 50° N 17:07:56 10° ENE visible
05 Dec 1.8 18:39:10 10° WNW 18:43:06 75° NNE 18:43:19 72° NE visible
05 Dec 5.4 20:18:04 10° WNW 20:18:09 10° W 20:18:09 10° W visible
06 Dec 1.8 18:20:46 10° WNW 18:24:42 77° NNE 18:25:51 43° E visible
06 Dec 4.9 19:59:41 10° W 20:00:42 16° W 20:00:42 16° W visible
07 Dec 1.9 18:02:22 10° WNW 18:06:17 80° NNE 18:08:28 25° ESE visible
07 Dec 4.3 19:41:18 10° W 19:43:20 23° WSW 19:43:20 23° WSW visible
08 Dec 1.9 17:43:57 10° WNW 17:47:53 82° NNE 17:51:14 14° ESE visible
08 Dec 3.8 19:22:55 10° W 19:26:06 27° SW 19:26:06 27° SW visible
09 Dec 1.9 17:25:31 10° WNW 17:29:28 85° NNE 17:33:22 10° ESE visible
09 Dec 3.9 19:04:32 10° W 19:07:49 26° SW 19:09:04 22° S visible
10 Dec 2.0 17:07:06 10° WNW 17:11:02 88° NNE 17:14:56 10° ESE visible
10 Dec 4.1 18:46:09 10° W 18:49:22 25° SW 18:52:19 11° SSE visible
